When you browse on this site, cookies collect data to enhance your experience and personalize the content and advertising you see.
Visit our Privacy Policy to learn more. By continuing to use the site, you agree to this use of cookies and data.
  • In Hungary
  • List of Countries
  • For 7 days
  • Water Temperature
  • Weather Map
  • News
  • Weather Widgets
  • user-avatar
    Login

    Hourly Weather Olsztynek

    Today, 11 November, Monday

    Time Temperature Precipitation Wind Pressure Humidity
    00:00 +5°C° 0 mm 1 mps 745 mmHg 94%
    01:00 +3°C° 0 mm 2 mps 745 mmHg 94%
    02:00 +3°C° 0 mm 2 mps 745 mmHg 94%
    03:00 +3°C° 0 mm 2 mps 745 mmHg 95%
    04:00 +3°C° 0 mm 2 mps 745 mmHg 95%
    05:00 +2°C° 0 mm 2 mps 745 mmHg 95%
    06:00 +2°C° 0 mm 2 mps 745 mmHg 95%
    07:00 +1°C° 0 mm 2 mps 746 mmHg 92%
    08:00 +2°C° 0 mm 2 mps 746 mmHg 89%
    09:00 +3°C° 0 mm 2 mps 746 mmHg 86%
    10:00 +4°C° 0 mm 2 mps 746 mmHg 82%
    11:00 +5°C° 0 mm 2 mps 746 mmHg 79%
    12:00 +5°C° 0 mm 2 mps 746 mmHg 76%
    13:00 +6°C° 0 mm 2 mps 746 mmHg 74%
    14:00 +5°C° 0 mm 2 mps 746 mmHg 77%
    15:00 +4°C° 0 mm 2 mps 746 mmHg 80%
    16:00 +4°C° 0 mm 1 mps 746 mmHg 83%
    17:00 +3°C° 0 mm 2 mps 746 mmHg 85%
    18:00 +3°C° 0 mm 2 mps 746 mmHg 87%
    19:00 +2°C° 0 mm 2 mps 746 mmHg 88%
    20:00 +2°C° 0 mm 2 mps 746 mmHg 87%
    21:00 +1°C° 0 mm 3 mps 746 mmHg 87%
    22:00 +1°C° 0 mm 3 mps 745 mmHg 86%
    23:00 +1°C° 0 mm 3 mps 745 mmHg 86%

    Tomorrow, 12 November, Tuesday

    Time Temperature Precipitation Wind Pressure Humidity
    00:00 0°C° 0 mm 4 mps 745 mmHg 86%
    01:00 0°C° 0 mm 4 mps 745 mmHg 86%
    02:00 0°C° 0 mm 4 mps 745 mmHg 85%
    03:00 +1°C° 0 mm 5 mps 744 mmHg 85%
    04:00 +1°C° 0 mm 5 mps 744 mmHg 84%
    05:00 +2°C° 0 mm 5 mps 744 mmHg 84%
    06:00 +2°C° 0 mm 5 mps 744 mmHg 84%
    07:00 +3°C° 0 mm 5 mps 743 mmHg 84%
    08:00 +3°C° 0 mm 5 mps 743 mmHg 82%
    09:00 +3°C° 0 mm 5 mps 743 mmHg 80%
    10:00 +5°C° 0 mm 5 mps 743 mmHg 78%
    11:00 +5°C° 0 mm 5 mps 743 mmHg 77%
    12:00 +6°C° 0 mm 4 mps 743 mmHg 76%
    13:00 +6°C° 0 mm 4 mps 743 mmHg 75%
    14:00 +7°C° 0 mm 3 mps 743 mmHg 77%
    15:00 +7°C° 0 mm 3 mps 743 mmHg 78%
    16:00 +7°C° 0 mm 3 mps 742 mmHg 80%
    17:00 +7°C° 0.1 mm 3 mps 742 mmHg 81%
    18:00 +7°C° 0.1 mm 3 mps 742 mmHg 82%
    19:00 +7°C° 0.1 mm 3 mps 742 mmHg 83%
    20:00 +7°C° 0.1 mm 3 mps 742 mmHg 85%
    21:00 +7°C° 0.1 mm 3 mps 742 mmHg 88%
    22:00 +7°C° 0.1 mm 3 mps 741 mmHg 90%
    23:00 +7°C° 0.2 mm 3 mps 741 mmHg 92%

    Day after tomorrow, 13 November, Wednesday

    Time Temperature Precipitation Wind Pressure Humidity
    00:00 +7°C° 0.2 mm 3 mps 741 mmHg 93%
    01:00 +7°C° 0.2 mm 3 mps 740 mmHg 95%
    02:00 +7°C° 0.2 mm 3 mps 740 mmHg 95%
    03:00 +7°C° 0.2 mm 3 mps 739 mmHg 95%
    04:00 +8°C° 0.2 mm 3 mps 739 mmHg 95%
    05:00 +7°C° 0 mm 2 mps 739 mmHg 94%
    06:00 +7°C° 0 mm 2 mps 738 mmHg 93%
    07:00 +7°C° 0 mm 2 mps 738 mmHg 93%
    08:00 +8°C° 0.6 mm 2 mps 738 mmHg 93%
    09:00 +8°C° 0.6 mm 2 mps 738 mmHg 94%
    10:00 +8°C° 0.6 mm 2 mps 738 mmHg 94%
    11:00 +8°C° 1.2 mm 2 mps 738 mmHg 95%
    12:00 +8°C° 1.2 mm 3 mps 737 mmHg 96%
    13:00 +8°C° 1.2 mm 3 mps 737 mmHg 97%
    14:00 +9°C° 1 mm 2 mps 737 mmHg 97%
    15:00 +9°C° 1 mm 2 mps 737 mmHg 97%
    16:00 +9°C° 1 mm 2 mps 737 mmHg 96%
    17:00 +10°C° 0.1 mm 1 mps 737 mmHg 96%
    18:00 +9°C° 0.1 mm 1 mps 738 mmHg 96%
    19:00 +9°C° 0.1 mm 1 mps 738 mmHg 96%
    20:00 +9°C° 0 mm 1 mps 738 mmHg 96%
    21:00 +9°C° 0 mm 1 mps 738 mmHg 96%
    22:00 +8°C° 0 mm 2 mps 738 mmHg 96%
    23:00 +8°C° 0 mm 3 mps 737 mmHg 94%

    14 November, Thursday

    Time Temperature Precipitation Wind Pressure Humidity
    00:00 +9°C° 0 mm 3 mps 737 mmHg 92%
    01:00 +8°C° 0 mm 4 mps 736 mmHg 90%
    02:00 +9°C° 0 mm 5 mps 736 mmHg 86%
    03:00 +10°C° 0 mm 6 mps 736 mmHg 83%
    04:00 +10°C° 0 mm 6 mps 735 mmHg 79%
    05:00 +9°C° 0 mm 6 mps 736 mmHg 82%
    06:00 +9°C° 0 mm 6 mps 737 mmHg 85%
    07:00 +8°C° 0 mm 7 mps 738 mmHg 87%
    08:00 +7°C° 0 mm 5 mps 739 mmHg 86%
    09:00 +7°C° 0 mm 4 mps 740 mmHg 85%
    10:00 +8°C° 0 mm 2 mps 741 mmHg 84%
    11:00 +8°C° 0 mm 2 mps 742 mmHg 82%
    12:00 +10°C° 0 mm 1 mps 743 mmHg 79%
    13:00 +10°C° 0 mm 1 mps 744 mmHg 77%
    14:00 +10°C° 0 mm 1 mps 744 mmHg 79%
    15:00 +9°C° 0 mm 1 mps 744 mmHg 82%
    16:00 +8°C° 0 mm 0 mps 744 mmHg 85%
    17:00 +8°C° 0 mm 1 mps 744 mmHg 87%
    18:00 +8°C° 0 mm 1 mps 744 mmHg 89%
    19:00 +7°C° 0 mm 2 mps 745 mmHg 91%
    20:00 +7°C° 0 mm 2 mps 745 mmHg 91%
    21:00 +7°C° 0 mm 3 mps 745 mmHg 91%
    22:00 +7°C° 0 mm 3 mps 744 mmHg 91%
    23:00 +7°C° 0 mm 3 mps 744 mmHg 92%

    15 November, Friday

    Time Temperature Precipitation Wind Pressure Humidity
    00:00 +7°C° 0 mm 3 mps 744 mmHg 93%
    01:00 +6°C° 0 mm 4 mps 744 mmHg 94%
    02:00 +8°C° 0 mm 3 mps 744 mmHg 95%
    03:00 +8°C° 0 mm 3 mps 744 mmHg 95%
    04:00 +8°C° 0 mm 3 mps 744 mmHg 96%
    05:00 +8°C° 0 mm 3 mps 744 mmHg 95%
    06:00 +8°C° 0 mm 3 mps 744 mmHg 94%
    07:00 +8°C° 0 mm 3 mps 744 mmHg 93%
    08:00 +7°C° 0 mm 4 mps 744 mmHg 90%
    09:00 +8°C° 0 mm 4 mps 744 mmHg 88%
    10:00 +8°C° 0 mm 4 mps 744 mmHg 85%
    11:00 +10°C° 0 mm 4 mps 744 mmHg 83%
    12:00 +11°C° 0 mm 4 mps 744 mmHg 80%
    13:00 +10°C° 0 mm 5 mps 744 mmHg 78%
    14:00 +10°C° 0 mm 5 mps 744 mmHg 80%
    15:00 +9°C° 0 mm 5 mps 744 mmHg 83%
    16:00 +9°C° 0 mm 5 mps 744 mmHg 85%
    17:00 +8°C° 0 mm 5 mps 744 mmHg 86%
    18:00 +8°C° 0 mm 5 mps 744 mmHg 87%
    19:00 +8°C° 0 mm 5 mps 744 mmHg 88%
    20:00 +8°C° 0 mm 5 mps 744 mmHg 89%
    21:00 +8°C° 0 mm 5 mps 745 mmHg 89%
    22:00 +8°C° 0 mm 5 mps 745 mmHg 90%
    23:00 +8°C° 0 mm 4 mps 745 mmHg 91%

    16 November, Saturday

    Time Temperature Precipitation Wind Pressure Humidity
    00:00 +8°C° 0 mm 4 mps 745 mmHg 92%
    01:00 +8°C° 0 mm 4 mps 745 mmHg 93%
    02:00 +8°C° 0 mm 4 mps 745 mmHg 93%
    03:00 +7°C° 0 mm 4 mps 745 mmHg 93%
    04:00 +7°C° 0 mm 4 mps 745 mmHg 93%
    05:00 +7°C° 0 mm 4 mps 745 mmHg 93%
    06:00 +7°C° 0 mm 4 mps 745 mmHg 93%
    07:00 +7°C° 0 mm 4 mps 745 mmHg 93%
    08:00 +8°C° 0 mm 5 mps 745 mmHg 89%
    09:00 +9°C° 0 mm 5 mps 745 mmHg 85%
    10:00 +9°C° 0 mm 6 mps 745 mmHg 81%
    11:00 +10°C° 0 mm 5 mps 745 mmHg 78%
    12:00 +12°C° 0 mm 5 mps 745 mmHg 75%
    13:00 +13°C° 0 mm 5 mps 745 mmHg 71%
    14:00 +12°C° 0 mm 5 mps 745 mmHg 74%
    15:00 +12°C° 0 mm 4 mps 746 mmHg 76%
    16:00 +11°C° 0 mm 4 mps 746 mmHg 78%
    17:00 +11°C° 0 mm 3 mps 746 mmHg 80%
    18:00 +11°C° 0 mm 3 mps 747 mmHg 81%
    19:00 +10°C° 0 mm 3 mps 747 mmHg 82%
    20:00 +10°C° 0 mm 2 mps 748 mmHg 84%
    21:00 +10°C° 0 mm 2 mps 748 mmHg 86%
    22:00 +10°C° 0 mm 1 mps 749 mmHg 88%
    23:00 +10°C° 0 mm 1 mps 749 mmHg 89%
    Show more